Погода в Онгудае

Россия / Республика Алтай     50°44′58″N   86°08′01″E
темп.,
°C
ветер,
м/с
пор.,
м/с
влажн.,
%
обл.,
%
осадки,
мм/ч
давл.,
гПа
погр.,
м
28 февраля, вс
вс2801:00−24ююв118533 0.0 104323
04:00−26юв11880 0.0 104320
07:00−27вюв12871 0.0 104520
10:00−22вюв227867 0.0 1042132
13:00−15вюв126383 0.0 1037398
16:00−11вюв1359100 0.0 1034690
19:00−13юв1279100 0.0 103322
22:00−13юв2291100 0.1 103344
1 марта, пн
пн101:00−14юв2294100 0.1 103052
04:00−14юв2290100 0.0 102848
07:00−13юв2286100 0.0 102641
10:00−10юв2280100 0.0 1023117
13:00−4юв2366100 0.0 1020472
16:00−2ююз2958100 0.0 10181600
19:00−6ююз2274100 0.0 101926
22:00−8ю2281100 0.0 102030
2 марта, вт
вт201:00−9ю2283100 0.0 101927
04:00−8ююв1184100 0.0 102028
07:00−11юв1287100 0.0 102122
10:00−8вюв1184100 0.0 1020100
13:00−2ююз1658100 0.0 10191222
16:00−1з1460100 0.0 1017992
19:00−5юв1182100 0.1 101724
22:00−7ю1185100 0.2 101824
3 марта, ср
ср301:00−8ююз1186100 0.2 101621
04:00−8юв0089100 0.1 101521
07:00−9ююв1190100 0.1 101621
10:00−6юв1182100 0.0 1015160
13:00−3зюз2571100 0.3 10151049
16:00−3зюз5105484 0.4 10162046
19:00−10зюз117242 0.5 102222
22:00−13юз227829 0.0 102633
4 марта, чт
чт401:00−14ю118265 0.0 102833
04:00−15юв1183100 0.0 102923
07:00−15вюв1283100 0.0 103032
10:00−12вюв1272100 0.0 1028169
13:00−6вюв125399 0.0 1025481
16:00−3в124769 0.0 1022733
19:00−9юз116563 0.0 102421
22:00−11ю1169100 0.0 102524